Find Starlink 31851

NORAD ID: 59844 Int'l Des: 2024-097 Owner: SPXS Country: US Constellation: starlink operational
LEOCIRCULAR

現在のビュー

3D地球を読み込み中...

About Starlink 31851

Starlink 31851 (NORAD 59844) is a starlink constellation satellite (v2 mini) launched May 23, 2024 by SPXS of US. It operates in LEO, CIRCULAR orbit with a mass of 730.00 kg.

Starlink 31851について

説明を読み込み中...

次回通過

Passes for default location (London). Set your location on the main map for personalized predictions.

高度履歴

Loading altitude history...

軌道要素

1 59844U 24097K 26170.39744013 .00000262 00000-0 19043-4 0 9990
2 59844 43.0043 59.8057 0001133 274.0447 86.0275 15.27577577117477
Epoch: Jun 19, 2026 • Age: 14 hours

現在のステータス

高度 484.1 km
速度 7.63 km/s
衛星直下点 30.14°N, 171.55°W
打ち上げ日 May 23, 2024
運用期間 2 years
タイプ internet

技術仕様

分類 Payload
質量 730.00 kg
乾燥質量 700.00 kg
総質量 730.00 kg
長さ 0.30 m
直径 4.10 m
スパン 29.00 m
形状 Box + pan
製造者 SPXS
バスタイプ Starlink V2M
フェーズステータス In Orbit
所有者/国 SPXS/US

Most Searched